Powrót do katalogu

RIDESHARE ADAPTER

AktywnyNaukaSSO
NORAD 47435·PAYLOAD·🇺🇸 United States

Wystrzelony Jan 24, 2021 z Cape Canaveral Space Force Station

Loading…

Następne Przeloty (najbliższe 24 godziny)

TLE

ŚwieżeSource: Space-Track

Epoka: Sep 14, 2026, 14:27 UTC

1 47435U 21006Y   26257.60214552  .00010823  00000-0  20570-3 0  9990
2 47435  97.2108 311.3857 0006680 178.8035 181.3233 15.48409850313970

Śledź RIDESHARE ADAPTER w czasie rzeczywistym z AllMySat

Download on the App Store